Location: City of Moscow
(46.7306°N, 116.9989°W)
Time: 18:22:48
(UTC+00:00)

FO-29 - Visible Passes

Search period start: 11 April 2026 00:00
Search period end: 21 April 2026 00:00
Orbit: 801 x 1320 km, 98.5° (Epoch: 11 April)

Date Brightness Start Highest point End Pass type
(mag) Time Alt. Az. Time Alt. Az. Time Alt. Az.
11 Apr 10.6 03:03:27 10° NNE 03:10:17 33° E 03:16:35 10° SSE visible
11 Apr 10.5 04:48:03 10° N 04:55:41 60° WNW 05:02:42 10° SW visible
11 Apr 12.5 06:34:47 10° NNW 06:39:05 16° NW 06:43:15 10° W visible
12 Apr 10.0 03:52:51 10° NNE 04:00:36 68° E 04:07:37 10° S visible
12 Apr 11.6 05:38:25 10° N 05:45:00 31° WNW 05:51:09 10° WSW visible
12 Apr 13.0 12:28:00 10° ENE 12:30:24 12° NE 12:32:49 10° NNE visible
13 Apr 10.7 02:58:18 10° NNE 03:04:54 31° E 03:10:59 10° SSE visible
13 Apr 10.4 04:42:47 10° N 04:50:25 63° WNW 04:57:21 10° SSW visible
13 Apr 12.4 06:29:25 10° NNW 06:33:52 17° NW 06:38:10 10° W visible
14 Apr 10.0 03:47:37 10° NNE 03:55:16 63° E 04:02:09 10° S visible
14 Apr 11.5 05:33:08 10° N 05:39:46 33° WNW 05:45:55 10° WSW visible
14 Apr 13.1 12:23:13 10° NE 12:25:13 11° NE 12:27:13 10° NNE visible
15 Apr 10.3 04:37:31 10° N 04:45:08 67° WNW 04:51:59 10° SSW visible
15 Apr 12.4 06:24:04 10° N 06:28:40 17° NW 06:33:04 10° W visible
16 Apr 10.0 03:42:25 10° NNE 03:49:56 59° E 03:56:40 10° S visible
16 Apr 11.5 05:27:51 10° N 05:34:30 34° WNW 05:40:39 10° WSW visible
16 Apr 13.1 12:18:35 10° NE 12:20:02 11° NE 12:21:29 10° NNE visible
17 Apr 10.2 04:32:16 10° N 04:39:50 71° WNW 04:46:37 10° SSW visible
17 Apr 12.4 06:18:43 10° N 06:23:27 18° NW 06:27:57 10° W visible
18 Apr 10.0 03:37:13 10° NNE 03:44:35 55° E 03:51:10 10° S visible
18 Apr 11.4 05:22:34 10° N 05:29:15 36° WNW 05:35:22 10° WSW visible
18 Apr 13.1 12:14:40 10° NE 12:14:52 10° NE 12:15:04 10° NE visible
19 Apr 10.1 04:27:02 10° N 04:34:33 75° WNW 04:41:13 10° SSW visible
19 Apr 12.3 06:13:24 10° N 06:18:13 19° NW 06:22:47 10° W visible
20 Apr 10.0 03:32:00 10° NNE 03:39:13 51° E 03:45:38 10° S visible
20 Apr 11.3 05:17:17 10° N 05:23:59 37° WNW 05:30:04 10° SW visible
